| time (UTC) | temp F | wind direction | speed MPH | gust MPH | rain 1hr in | rain 24hr in | rain mn in | humidity % | barometer mb |
| 20260508172207 | 74 | 96 | 0.0 | 3.0 | 0.00 | 0.00 | 0.00 | 56 | 1018.0 |
| 20260508171703 | 74 | 85 | 3.0 | 5.0 | 0.00 | 0.00 | 0.00 | 55 | 1017.8 |
| 20260508171159 | 74 | 89 | 3.0 | 4.0 | 0.00 | 0.00 | 0.00 | 56 | 1017.8 |
| 20260508170656 | 73 | 65 | 1.0 | 5.0 | 0.00 | 0.00 | 0.00 | 56 | 1018.0 |
| 20260508170154 | 72 | 155 | 3.0 | 4.0 | 0.00 | 0.00 | 0.00 | 54 | 1018.2 |
| 20260508165651 | 71 | 122 | 4.0 | 5.0 | 0.00 | 0.00 | 0.00 | 59 | 1018.0 |
| 20260508165148 | 70 | 102 | 2.0 | 5.0 | 0.00 | 0.00 | 0.00 | 60 | 1017.8 |
| 20260508164645 | 71 | 120 | 4.0 | 5.0 | 0.00 | 0.00 | 0.00 | 60 | 1018.0 |
| 20260508164141 | 69 | 117 | 0.0 | 6.0 | 0.00 | 0.00 | 0.00 | 60 | 1017.9 |
| 20260508163639 | 71 | 129 | 0.0 | 3.0 | 0.00 | 0.00 | 0.00 | 60 | 1018.0 |
| 20260508163136 | 70 | 133 | 1.0 | 3.0 | 0.00 | 0.00 | 0.00 | 66 | 1017.7 |
| 20260508162632 | 69 | 111 | 3.0 | 6.0 | 0.00 | 0.00 | 0.00 | 63 | 1017.8 |
| 20260508162129 | 69 | 97 | 4.0 | 4.0 | 0.00 | 0.00 | 0.00 | 67 | 1017.9 |
| 20260508161626 | 67 | 19 | 0.0 | 2.0 | 0.00 | 0.00 | 0.00 | 70 | 1018.0 |
| 20260508161123 | 67 | 59 | 3.0 | 6.0 | 0.00 | 0.00 | 0.00 | 75 | 1017.9 |
| 20260508160621 | 66 | 104 | 3.0 | 5.0 | 0.00 | 0.00 | 0.00 | 74 | 1017.9 |
| 20260508160118 | 65 | 161 | 1.0 | 2.0 | 0.00 | 0.00 | 0.00 | 77 | 1018.1 |
| 20260508155610 | 64 | 279 | 1.0 | 2.0 | 0.00 | 0.00 | 0.00 | 76 | 1018.1 |
| 20260508155107 | 65 | 139 | 1.0 | 4.0 | 0.00 | 0.00 | 0.00 | 75 | 1018.0 |
| 20260508154603 | 64 | 73 | 3.0 | 4.0 | 0.00 | 0.00 | 0.00 | 76 | 1018.0 |
| 20260508154055 | 63 | 115 | 3.0 | 5.0 | 0.00 | 0.00 | 0.00 | 79 | 1018.1 |
| 20260508153552 | 63 | 139 | 3.0 | 5.0 | 0.00 | 0.00 | 0.00 | 81 | 1018.1 |
| 20260508153048 | 64 | 91 | 3.0 | 5.0 | 0.00 | 0.00 | 0.00 | 81 | 1018.1 |
| 20260508152546 | 61 | 113 | 0.0 | 1.0 | 0.00 | 0.00 | 0.00 | 83 | 1017.9 |
| 20260508152040 | 60 | 353 | 0.0 | 1.0 | 0.00 | 0.00 | 0.00 | 84 | 1017.8 |
| 20260508151537 | 61 | 243 | 1.0 | 2.0 | 0.00 | 0.00 | 0.00 | 82 | 1017.9 |
| 20260508151034 | 60 | 126 | 2.0 | 2.0 | 0.00 | 0.00 | 0.00 | 86 | 1017.8 |
| 20260508150532 | 58 | 162 | 0.0 | 1.0 | 0.00 | 0.00 | 0.00 | 88 | 1017.9 |
| 20260508150027 | 59 | 67 | 0.0 | 4.0 | 0.00 | 0.00 | 0.00 | 87 | 1018.0 |
| 20260508145524 | 59 | 97 | 1.0 | 3.0 | 0.00 | 0.00 | 0.00 | 92 | 1017.8 |
| 20260508145020 | 58 | 31 | 0.0 | 2.0 | 0.00 | 0.00 | 0.00 | 94 | 1017.9 |
| 20260508144518 | 57 | 30 | 0.0 | 4.0 | 0.00 | 0.00 | 0.00 | 97 | 1017.9 |
| 20260508144015 | 55 | 79 | 3.0 | 4.0 | 0.00 | 0.00 | 0.00 | 98 | 1018.0 |
| 20260508143513 | 54 | 65 | 1.0 | 2.0 | 0.00 | 0.00 | 0.00 | 98 | 1017.9 |
| 20260508143009 | 53 | 250 | 1.0 | 3.0 | 0.00 | 0.00 | 0.00 | 98 | 1017.8 |
| 20260508142507 | 56 | 188 | 1.0 | 2.0 | 0.00 | 0.00 | 0.00 | 97 | 1018.0 |
| 20260508142003 | 53 | 102 | 0.0 | 2.0 | 0.00 | 0.00 | 0.00 | 99 | 1018.2 |
| 20260508141459 | 52 | 288 | 2.0 | 2.0 | 0.00 | 0.00 | 0.00 | 99 | 1017.9 |
| 20260508140957 | 52 | 161 | 2.0 | 2.0 | 0.00 | 0.00 | 0.00 | 99 | 1018.0 |
| 20260508140454 | 52 | 12 | 0.0 | 2.0 | 0.00 | 0.00 | 0.00 | 99 | 1017.8 |
| 20260508135949 | 51 | 302 | 1.0 | 3.0 | 0.00 | 0.00 | 0.00 | 99 | 1017.8 |
| 20260508135446 | 52 | 64 | 2.0 | 2.0 | 0.00 | 0.00 | 0.00 | 99 | 1017.7 |
| 20260508134943 | 52 | 310 | 1.0 | 2.0 | 0.00 | 0.00 | 0.00 | 99 | 1017.6 |
| 20260508134439 | 52 | 335 | 0.0 | 1.0 | 0.00 | 0.00 | 0.00 | 99 | 1017.6 |
| 20260508133936 | 52 | 6 | 2.0 | 2.0 | 0.00 | 0.00 | 0.00 | 99 | 1017.6 |
| 20260508133434 | 52 | 142 | 0.0 | 2.0 | 0.00 | 0.00 | 0.00 | 99 | 1017.7 |
| 20260508132930 | 51 | 295 | 2.0 | 3.0 | 0.00 | 0.00 | 0.00 | 99 | 1017.7 |
| 20260508132429 | 51 | 306 | 1.0 | 2.0 | 0.00 | 0.00 | 0.00 | 99 | 1017.4 |
| 20260508131925 | 52 | 136 | 0.0 | 3.0 | 0.00 | 0.00 | 0.00 | 99 | 1017.5 |
| 20260508131420 | 52 | 197 | 0.0 | 2.0 | 0.00 | 0.00 | 0.00 | 99 | 1017.3 |
| 20260508130917 | 52 | 178 | 0.0 | 2.0 | 0.00 | 0.00 | 0.00 | 99 | 1017.4 |
| 20260508130414 | 52 | 160 | 0.0 | 2.0 | 0.00 | 0.00 | 0.00 | 99 | 1017.3 |
| 20260508125910 | 52 | 32 | 0.0 | 2.0 | 0.00 | 0.00 | 0.00 | 99 | 1017.3 |
| 20260508125406 | 52 | 269 | 0.0 | 1.0 | 0.00 | 0.00 | 0.00 | 99 | 1017.4 |
| 20260508124904 | 52 | 8 | 0.0 | 2.0 | 0.00 | 0.00 | 0.00 | 99 | 1017.5 |
| 20260508124402 | 52 | 309 | 1.0 | 3.0 | 0.00 | 0.00 | 0.00 | 99 | 1017.3 |
| 20260508123859 | 52 | 211 | 2.0 | 3.0 | 0.00 | 0.00 | 0.00 | 99 | 1017.3 |
| 20260508123358 | 52 | 170 | 0.0 | 2.0 | 0.00 | 0.00 | 0.00 | 99 | 1017.7 |
| 20260508122853 | 53 | 191 | 2.0 | 2.0 | 0.00 | 0.00 | 0.00 | 99 | 1017.2 |
| 20260508122350 | 53 | 276 | 2.0 | 3.0 | 0.00 | 0.00 | 0.00 | 99 | 1017.3 |
| 20260508121848 | 53 | 20 | 0.0 | 2.0 | 0.00 | 0.00 | 0.00 | 99 | 1017.3 |
| 20260508121346 | 53 | 77 | 2.0 | 3.0 | 0.00 | 0.00 | 0.00 | 99 | 1017.3 |
| 20260508120843 | 53 | 32 | 3.0 | 3.0 | 0.00 | 0.00 | 0.00 | 99 | 1017.4 |
| 20260508120341 | 53 | 292 | 2.0 | 3.0 | 0.00 | 0.00 | 0.00 | 99 | 1017.3 |
| 20260508115838 | 53 | 289 | 2.0 | 3.0 | 0.00 | 0.00 | 0.00 | 99 | 1017.4 |
| 20260508115336 | 53 | 237 | 1.0 | 2.0 | 0.00 | 0.00 | 0.00 | 99 | 1017.3 |
| 20260508114832 | 53 | 162 | 1.0 | 2.0 | 0.00 | 0.00 | 0.00 | 99 | 1017.5 |
| 20260508114329 | 54 | 331 | 0.0 | 2.0 | 0.00 | 0.00 | 0.00 | 99 | 1017.4 |
| 20260508113826 | 54 | 252 | 2.0 | 4.0 | 0.00 | 0.00 | 0.00 | 99 | 1017.4 |
| 20260508113324 | 53 | 149 | 1.0 | 3.0 | 0.00 | 0.00 | 0.00 | 99 | 1017.4 |
| 20260508112820 | 54 | 308 | 1.0 | 3.0 | 0.00 | 0.00 | 0.00 | 99 | 1017.5 |
| 20260508112318 | 54 | 287 | 0.0 | 3.0 | 0.00 | 0.00 | 0.00 | 99 | 1017.1 |
| 20260508111814 | 54 | 58 | 2.0 | 3.0 | 0.00 | 0.00 | 0.00 | 99 | 1017.2 |
| 20260508111311 | 54 | 57 | 2.0 | 3.0 | 0.00 | 0.00 | 0.00 | 99 | 1017.2 |
| 20260508110808 | 54 | 257 | 0.0 | 3.0 | 0.00 | 0.00 | 0.00 | 99 | 1017.1 |
| 20260508110306 | 54 | 292 | 1.0 | 2.0 | 0.00 | 0.00 | 0.00 | 99 | 1017.4 |
| 20260508105805 | 54 | 109 | 0.0 | 2.0 | 0.00 | 0.00 | 0.00 | 99 | 1017.3 |
| 20260508105305 | 54 | 62 | 0.0 | 1.0 | 0.00 | 0.00 | 0.00 | 99 | 1017.2 |
| 20260508104759 | 54 | 5 | 0.0 | 1.0 | 0.00 | 0.00 | 0.00 | 99 | 1017.3 |
| 20260508104256 | 54 | 76 | 1.0 | 3.0 | 0.00 | 0.00 | 0.00 | 99 | 1017.3 |
| 20260508103754 | 55 | 97 | 0.0 | 1.0 | 0.00 | 0.00 | 0.00 | 99 | 1017.2 |
| 20260508103250 | 54 | 319 | 2.0 | 3.0 | 0.00 | 0.00 | 0.00 | 99 | 1017.3 |
| 20260508102748 | 54 | 301 | 0.0 | 2.0 | 0.00 | 0.00 | 0.00 | 99 | 1017.1 |
| 20260508102246 | 55 | 59 | 2.0 | 3.0 | 0.00 | 0.00 | 0.00 | 98 | 1017.2 |
| 20260508101743 | 55 | 242 | 0.0 | 2.0 | 0.00 | 0.00 | 0.00 | 99 | 1017.3 |
| 20260508101240 | 55 | 336 | 0.0 | 2.0 | 0.00 | 0.00 | 0.00 | 99 | 1017.2 |
| 20260508100738 | 55 | 288 | 2.0 | 3.0 | 0.00 | 0.00 | 0.00 | 99 | 1017.3 |
| 20260508100236 | 55 | 62 | 0.0 | 2.0 | 0.00 | 0.00 | 0.00 | 98 | 1017.2 |
| 20260508095731 | 55 | 310 | 0.0 | 0.0 | 0.00 | 0.00 | 0.00 | 98 | 1017.3 |
| 20260508095229 | 55 | 310 | 0.0 | 2.0 | 0.00 | 0.00 | 0.00 | 98 | 1017.2 |
| 20260508094725 | 55 | 196 | 0.0 | 1.0 | 0.00 | 0.00 | 0.00 | 98 | 1017.1 |
| 20260508094223 | 55 | 63 | 1.0 | 2.0 | 0.00 | 0.00 | 0.00 | 98 | 1017.3 |
| 20260508093720 | 55 | 15 | 0.0 | 2.0 | 0.00 | 0.00 | 0.00 | 98 | 1017.4 |
| 20260508093218 | 55 | 83 | 1.0 | 2.0 | 0.00 | 0.00 | 0.00 | 98 | 1017.2 |
| 20260508092714 | 55 | 317 | 2.0 | 2.0 | 0.00 | 0.00 | 0.00 | 98 | 1017.3 |
| 20260508092212 | 55 | 342 | 0.0 | 1.0 | 0.00 | 0.00 | 0.00 | 98 | 1017.1 |
| 20260508091710 | 55 | 33 | 2.0 | 3.0 | 0.00 | 0.00 | 0.00 | 98 | 1017.1 |
| 20260508091207 | 55 | 242 | 0.0 | 2.0 | 0.00 | 0.00 | 0.00 | 98 | 1017.2 |
| 20260508090705 | 56 | 154 | 0.0 | 1.0 | 0.00 | 0.00 | 0.00 | 98 | 1017.3 |
| 20260508090202 | 56 | 217 | 0.0 | 1.0 | 0.00 | 0.00 | 0.00 | 98 | 1017.5 |
| 20260508085658 | 56 | 292 | 2.0 | 3.0 | 0.00 | 0.00 | 0.00 | 98 | 1017.2 |
| 20260508085155 | 56 | 102 | 2.0 | 2.0 | 0.00 | 0.00 | 0.00 | 98 | 1017.3 |
| 20260508084651 | 56 | 296 | 2.0 | 3.0 | 0.00 | 0.00 | 0.00 | 98 | 1017.3 |
| 20260508084149 | 56 | 287 | 3.0 | 4.0 | 0.00 | 0.00 | 0.00 | 98 | 1017.3 |
| 20260508083646 | 56 | 276 | 2.0 | 2.0 | 0.00 | 0.00 | 0.00 | 98 | 1017.2 |
| 20260508083143 | 56 | 145 | 0.0 | 1.0 | 0.00 | 0.00 | 0.00 | 97 | 1017.3 |
| 20260508082632 | 57 | 158 | 0.0 | 1.0 | 0.00 | 0.00 | 0.00 | 97 | 1017.3 |
| 20260508082130 | 57 | 106 | 0.0 | 3.0 | 0.00 | 0.00 | 0.00 | 97 | 1017.3 |
| 20260508081628 | 57 | 56 | 2.0 | 2.0 | 0.00 | 0.00 | 0.00 | 97 | 1017.4 |
| 20260508081124 | 57 | 18 | 0.0 | 1.0 | 0.00 | 0.00 | 0.00 | 97 | 1017.4 |
| 20260508080621 | 57 | 218 | 0.0 | 1.0 | 0.00 | 0.00 | 0.00 | 97 | 1017.3 |
| 20260508080120 | 57 | 297 | 1.0 | 2.0 | 0.00 | 0.00 | 0.00 | 97 | 1017.4 |
| 20260508075615 | 57 | 284 | 0.0 | 1.0 | 0.00 | 0.00 | 0.00 | 97 | 1017.5 |
| 20260508075112 | 57 | 297 | 0.0 | 2.0 | 0.00 | 0.00 | 0.00 | 97 | 1017.6 |
| 20260508074610 | 57 | 237 | 0.0 | 1.0 | 0.00 | 0.00 | 0.00 | 97 | 1017.7 |
| 20260508074107 | 57 | 242 | 0.0 | 1.0 | 0.00 | 0.00 | 0.00 | 97 | 1017.2 |
| 20260508073604 | 57 | 245 | 1.0 | 1.0 | 0.00 | 0.00 | 0.00 | 97 | 1017.5 |
| 20260508073102 | 58 | 44 | 0.0 | 1.0 | 0.00 | 0.00 | 0.00 | 96 | 1017.4 |
| 20260508072557 | 58 | 315 | 0.0 | 2.0 | 0.00 | 0.00 | 0.00 | 96 | 1017.5 |
| 20260508072054 | 58 | 265 | 2.0 | 3.0 | 0.00 | 0.00 | 0.00 | 96 | 1017.5 |
| 20260508071553 | 58 | 147 | 0.0 | 2.0 | 0.00 | 0.00 | 0.00 | 96 | 1017.5 |
| 20260508071050 | 58 | 54 | 2.0 | 2.0 | 0.00 | 0.00 | 0.00 | 96 | 1017.5 |
| 20260508070548 | 59 | 75 | 2.0 | 3.0 | 0.00 | 0.00 | 0.00 | 96 | 1017.5 |
| 20260508070046 | 58 | 330 | 2.0 | 3.0 | 0.00 | 0.00 | 0.00 | 96 | 1017.4 |
| 20260508065543 | 58 | 322 | 0.0 | 1.0 | 0.00 | 0.00 | 0.00 | 96 | 1017.6 |
| 20260508065041 | 58 | 336 | 0.0 | 1.0 | 0.00 | 0.00 | 0.00 | 96 | 1017.3 |
| 20260508064538 | 59 | 37 | 0.0 | 2.0 | 0.00 | 0.00 | 0.00 | 96 | 1017.4 |
| 20260508064036 | 59 | 13 | 0.0 | 1.0 | 0.00 | 0.00 | 0.00 | 95 | 1017.4 |
| 20260508063533 | 59 | 304 | 0.0 | 1.0 | 0.00 | 0.00 | 0.00 | 95 | 1017.3 |
| 20260508063031 | 59 | 309 | 0.0 | 3.0 | 0.00 | 0.00 | 0.00 | 95 | 1017.4 |
| 20260508062529 | 59 | 329 | 2.0 | 2.0 | 0.00 | 0.00 | 0.00 | 95 | 1017.2 |
| 20260508062025 | 59 | 44 | 0.0 | 1.0 | 0.00 | 0.00 | 0.00 | 95 | 1017.4 |
| 20260508061523 | 59 | 34 | 3.0 | 3.0 | 0.00 | 0.00 | 0.00 | 94 | 1017.3 |
| 20260508061019 | 60 | 133 | 0.0 | 2.0 | 0.00 | 0.00 | 0.00 | 95 | 1017.3 |
| 20260508060516 | 60 | 315 | 1.0 | 2.0 | 0.00 | 0.00 | 0.00 | 94 | 1017.4 |
| 20260508060014 | 60 | 22 | 0.0 | 0.0 | 0.00 | 0.00 | 0.00 | 94 | 1017.2 |
| 20260508055509 | 60 | 48 | 2.0 | 2.0 | 0.00 | 0.00 | 0.00 | 93 | 1017.3 |
| 20260508055006 | 60 | 314 | 2.0 | 3.0 | 0.00 | 0.00 | 0.00 | 93 | 1017.3 |
| 20260508054503 | 60 | 280 | 2.0 | 3.0 | 0.00 | 0.00 | 0.00 | 93 | 1017.0 |
| 20260508054000 | 60 | 260 | 1.0 | 1.0 | 0.00 | 0.00 | 0.00 | 93 | 1017.0 |
| 20260508053457 | 60 | 242 | 0.0 | 1.0 | 0.00 | 0.00 | 0.00 | 93 | 1017.0 |
| 20260508052955 | 61 | 260 | 2.0 | 3.0 | 0.00 | 0.00 | 0.00 | 92 | 1016.9 |
| 20260508052452 | 61 | 89 | 0.0 | 2.0 | 0.00 | 0.00 | 0.00 | 91 | 1016.8 |
| 20260508051948 | 61 | 72 | 3.0 | 3.0 | 0.00 | 0.00 | 0.00 | 91 | 1017.1 |
| 20260508051444 | 61 | 311 | 2.0 | 3.0 | 0.00 | 0.00 | 0.00 | 91 | 1017.1 |
| 20260508050940 | 61 | 299 | 2.0 | 3.0 | 0.00 | 0.00 | 0.00 | 92 | 1016.9 |
| 20260508050437 | 61 | 295 | 1.0 | 2.0 | 0.00 | 0.00 | 0.00 | 92 | 1016.8 |
| 20260508045933 | 62 | 333 | 0.0 | 2.0 | 0.00 | 0.00 | 0.00 | 91 | 1017.0 |
| 20260508045431 | 62 | 73 | 1.0 | 3.0 | 0.00 | 0.00 | 0.00 | 90 | 1016.7 |
| 20260508044928 | 62 | 85 | 0.0 | 1.0 | 0.00 | 0.00 | 0.00 | 89 | 1016.8 |
| 20260508044425 | 62 | 330 | 2.0 | 2.0 | 0.00 | 0.00 | 0.00 | 89 | 1016.7 |
| 20260508043920 | 63 | 246 | 0.0 | 2.0 | 0.00 | 0.00 | 0.00 | 89 | 1016.8 |
| 20260508043418 | 63 | 256 | 0.0 | 2.0 | 0.00 | 0.00 | 0.00 | 89 | 1016.8 |
| 20260508042914 | 63 | 253 | 0.0 | 2.0 | 0.00 | 0.00 | 0.00 | 88 | 1016.9 |
| 20260508042412 | 63 | 262 | 0.0 | 3.0 | 0.00 | 0.00 | 0.00 | 87 | 1016.5 |
| 20260508041909 | 63 | 281 | 4.0 | 4.0 | 0.00 | 0.00 | 0.00 | 88 | 1016.5 |
| 20260508041405 | 64 | 273 | 2.0 | 4.0 | 0.00 | 0.00 | 0.00 | 85 | 1016.4 |
| 20260508040901 | 64 | 350 | 2.0 | 2.0 | 0.00 | 0.00 | 0.00 | 86 | 1016.3 |
| 20260508040359 | 64 | 305 | 2.0 | 3.0 | 0.00 | 0.00 | 0.00 | 86 | 1016.4 |
| 20260508035856 | 65 | 58 | 2.0 | 3.0 | 0.00 | 0.00 | 0.00 | 85 | 1016.2 |
| 20260508035348 | 65 | 317 | 2.0 | 3.0 | 0.00 | 0.00 | 0.00 | 83 | 1016.1 |
| 20260508034844 | 65 | 349 | 2.0 | 3.0 | 0.00 | 0.00 | 0.00 | 85 | 1015.9 |
| 20260508034341 | 65 | 0 | 2.0 | 3.0 | 0.00 | 0.00 | 0.00 | 84 | 1016.1 |
| 20260508033832 | 65 | 289 | 3.0 | 5.0 | 0.00 | 0.00 | 0.00 | 84 | 1016.2 |
| 20260508033331 | 67 | 263 | 1.0 | 3.0 | 0.00 | 0.00 | 0.00 | 80 | 1016.2 |
| 20260508032828 | 67 | 287 | 3.0 | 6.0 | 0.00 | 0.00 | 0.00 | 80 | 1016.0 |
| 20260508032326 | 66 | 276 | 9.0 | 9.0 | 0.00 | 0.00 | 0.00 | 82 | 1015.8 |
| 20260508031822 | 67 | 262 | 6.0 | 10.0 | 0.00 | 0.00 | 0.00 | 78 | 1015.8 |
| 20260508031319 | 68 | 259 | 5.0 | 9.0 | 0.00 | 0.00 | 0.00 | 78 | 1015.7 |
| 20260508030815 | 68 | 275 | 6.0 | 10.0 | 0.00 | 0.00 | 0.00 | 78 | 1015.5 |
| 20260508030313 | 67 | 267 | 5.0 | 8.0 | 0.00 | 0.00 | 0.00 | 80 | 1015.6 |
| 20260508025809 | 67 | 275 | 5.0 | 5.0 | 0.00 | 0.00 | 0.00 | 81 | 1015.6 |
| 20260508025306 | 68 | 269 | 5.0 | 7.0 | 0.00 | 0.00 | 0.00 | 81 | 1015.5 |
| 20260508024803 | 68 | 273 | 4.0 | 8.0 | 0.00 | 0.00 | 0.00 | 80 | 1015.5 |
| 20260508024259 | 69 | 286 | 8.0 | 11.0 | 0.00 | 0.00 | 0.00 | 78 | 1015.4 |
| 20260508023756 | 69 | 245 | 8.0 | 12.0 | 0.00 | 0.00 | 0.00 | 79 | 1015.4 |
| 20260508023253 | 69 | 260 | 8.0 | 10.0 | 0.00 | 0.00 | 0.00 | 78 | 1015.4 |
| 20260508022749 | 69 | 271 | 8.0 | 11.0 | 0.00 | 0.00 | 0.00 | 77 | 1015.5 |
| 20260508022246 | 69 | 275 | 10.0 | 10.0 | 0.00 | 0.00 | 0.00 | 78 | 1015.2 |
| 20260508021743 | 70 | 278 | 7.0 | 11.0 | 0.00 | 0.00 | 0.00 | 77 | 1015.5 |
| 20260508021238 | 70 | 255 | 6.0 | 10.0 | 0.00 | 0.00 | 0.00 | 76 | 1015.4 |
| 20260508020735 | 70 | 259 | 7.0 | 10.0 | 0.00 | 0.00 | 0.00 | 76 | 1015.5 |
| 20260508020233 | 70 | 257 | 4.0 | 9.0 | 0.00 | 0.00 | 0.00 | 76 | 1015.4 |
| 20260508015730 | 71 | 258 | 7.0 | 10.0 | 0.00 | 0.00 | 0.00 | 73 | 1015.3 |
| 20260508015227 | 71 | 261 | 7.0 | 9.0 | 0.00 | 0.00 | 0.00 | 74 | 1015.3 |
| 20260508014724 | 70 | 264 | 4.0 | 9.0 | 0.00 | 0.00 | 0.00 | 76 | 1015.5 |
| 20260508014220 | 71 | 274 | 7.0 | 9.0 | 0.00 | 0.00 | 0.00 | 74 | 1015.3 |
| 20260508013716 | 74 | 265 | 7.0 | 9.0 | 0.00 | 0.00 | 0.00 | 68 | 1015.4 |
| 20260508013213 | 74 | 257 | 5.0 | 12.0 | 0.00 | 0.00 | 0.00 | 68 | 1015.5 |
| 20260508012711 | 74 | 234 | 10.0 | 13.0 | 0.00 | 0.00 | 0.00 | 68 | 1015.5 |
| 20260508012207 | 75 | 229 | 6.0 | 10.0 | 0.00 | 0.00 | 0.00 | 69 | 1015.5 |
| 20260508011706 | 75 | 238 | 4.0 | 10.0 | 0.00 | 0.00 | 0.00 | 68 | 1015.4 |
| 20260508011203 | 75 | 264 | 7.0 | 11.0 | 0.00 | 0.00 | 0.00 | 66 | 1015.6 |
| 20260508010659 | 75 | 242 | 8.0 | 10.0 | 0.00 | 0.00 | 0.00 | 65 | 1015.5 |
| 20260508010157 | 75 | 250 | 6.0 | 11.0 | 0.00 | 0.00 | 0.00 | 67 | 1015.5 |
| 20260508005654 | 75 | 263 | 7.0 | 12.0 | 0.00 | 0.00 | 0.00 | 65 | 1015.4 |
| 20260508005150 | 75 | 227 | 7.0 | 12.0 | 0.00 | 0.00 | 0.00 | 66 | 1015.6 |
| 20260508004646 | 75 | 273 | 6.0 | 11.0 | 0.00 | 0.00 | 0.00 | 65 | 1015.5 |
| 20260508004143 | 76 | 246 | 5.0 | 8.0 | 0.00 | 0.00 | 0.00 | 66 | 1015.5 |
| 20260508003639 | 76 | 217 | 5.0 | 12.0 | 0.00 | 0.00 | 0.00 | 65 | 1015.6 |
| 20260508003137 | 76 | 262 | 4.0 | 8.0 | 0.00 | 0.00 | 0.00 | 65 | 1015.4 |
| 20260508002633 | 75 | 271 | 12.0 | 16.0 | 0.00 | 0.00 | 0.00 | 65 | 1015.6 |
| 20260508002131 | 76 | 224 | 7.0 | 13.0 | 0.00 | 0.00 | 0.00 | 66 | 1015.4 |
| 20260508001626 | 75 | 245 | 6.0 | 12.0 | 0.00 | 0.00 | 0.00 | 65 | 1015.5 |
| 20260508001122 | 76 | 221 | 7.0 | 11.0 | 0.00 | 0.00 | 0.00 | 66 | 1015.5 |
| 20260508000618 | 76 | 172 | 5.0 | 11.0 | 0.00 | 0.00 | 0.00 | 64 | 1015.5 |
| 20260508000116 | 76 | 230 | 5.0 | 11.0 | 0.00 | 0.00 | 0.00 | 63 | 1015.5 |
| 20260507235613 | 76 | 241 | 8.0 | 15.0 | 0.00 | 0.00 | 0.00 | 63 | 1015.4 |
| 20260507235110 | 76 | 199 | 3.0 | 12.0 | 0.00 | 0.00 | 0.00 | 65 | 1015.4 |
| 20260507234606 | 76 | 217 | 5.0 | 11.0 | 0.00 | 0.00 | 0.00 | 64 | 1015.3 |
| 20260507234103 | 76 | 266 | 7.0 | 12.0 | 0.00 | 0.00 | 0.00 | 64 | 1015.5 |
| 20260507233600 | 75 | 253 | 5.0 | 11.0 | 0.00 | 0.00 | 0.00 | 65 | 1015.4 |
| 20260507233059 | 75 | 221 | 7.0 | 12.0 | 0.00 | 0.00 | 0.00 | 64 | 1015.5 |
| 20260507232554 | 76 | 262 | 5.0 | 11.0 | 0.00 | 0.00 | 0.00 | 64 | 1015.7 |
| 20260507232052 | 75 | 210 | 1.0 | 9.0 | 0.00 | 0.00 | 0.00 | 66 | 1015.5 |
| 20260507231548 | 75 | 218 | 10.0 | 14.0 | 0.00 | 0.00 | 0.00 | 65 | 1015.6 |
| 20260507231045 | 75 | 224 | 3.0 | 10.0 | 0.00 | 0.00 | 0.00 | 65 | 1015.5 |
| 20260507230542 | 75 | 226 | 5.0 | 12.0 | 0.00 | 0.00 | 0.00 | 64 | 1015.7 |
| 20260507230038 | 76 | 162 | 4.0 | 11.0 | 0.00 | 0.00 | 0.00 | 65 | 1015.8 |
| 20260507225533 | 76 | 195 | 5.0 | 11.0 | 0.00 | 0.00 | 0.00 | 63 | 1015.9 |
| 20260507225030 | 76 | 208 | 10.0 | 10.0 | 0.00 | 0.00 | 0.00 | 65 | 1015.7 |
| 20260507224526 | 76 | 184 | 8.0 | 11.0 | 0.00 | 0.00 | 0.00 | 65 | 1015.9 |
| 20260507224022 | 75 | 242 | 11.0 | 14.0 | 0.00 | 0.00 | 0.00 | 64 | 1016.0 |
| 20260507223519 | 76 | 264 | 5.0 | 7.0 | 0.00 | 0.00 | 0.00 | 66 | 1015.9 |
| 20260507223016 | 75 | 265 | 8.0 | 10.0 | 0.00 | 0.00 | 0.00 | 66 | 1016.1 |
| 20260507222513 | 76 | 176 | 8.0 | 13.0 | 0.00 | 0.00 | 0.00 | 65 | 1016.1 |
| 20260507222009 | 75 | 196 | 8.0 | 11.0 | 0.00 | 0.00 | 0.00 | 67 | 1016.2 |
| 20260507221506 | 75 | 216 | 8.0 | 11.0 | 0.00 | 0.00 | 0.00 | 66 | 1016.4 |
| 20260507221003 | 75 | 193 | 6.0 | 12.0 | 0.00 | 0.00 | 0.00 | 66 | 1016.4 |
| 20260507220500 | 75 | 257 | 4.0 | 8.0 | 0.00 | 0.00 | 0.00 | 63 | 1016.3 |
| 20260507215956 | 76 | 227 | 10.0 | 11.0 | 0.00 | 0.00 | 0.00 | 63 | 1016.5 |
| 20260507215453 | 75 | 191 | 3.0 | 10.0 | 0.00 | 0.00 | 0.00 | 66 | 1016.3 |
| 20260507214951 | 75 | 166 | 7.0 | 10.0 | 0.00 | 0.00 | 0.00 | 66 | 1016.5 |
| 20260507214448 | 75 | 159 | 4.0 | 9.0 | 0.00 | 0.00 | 0.00 | 64 | 1016.5 |
| 20260507213943 | 75 | 186 | 6.0 | 8.0 | 0.00 | 0.00 | 0.00 | 65 | 1016.7 |
| 20260507213439 | 75 | 194 | 4.0 | 9.0 | 0.00 | 0.00 | 0.00 | 65 | 1016.8 |
| 20260507212936 | 75 | 169 | 3.0 | 7.0 | 0.00 | 0.00 | 0.00 | 64 | 1016.8 |
| 20260507212427 | 75 | 234 | 3.0 | 9.0 | 0.00 | 0.00 | 0.00 | 65 | 1016.9 |
| 20260507211924 | 75 | 203 | 4.0 | 8.0 | 0.00 | 0.00 | 0.00 | 67 | 1016.9 |
| 20260507211421 | 74 | 222 | 4.0 | 9.0 | 0.00 | 0.00 | 0.00 | 68 | 1016.9 |
| 20260507210917 | 74 | 166 | 4.0 | 9.0 | 0.00 | 0.00 | 0.00 | 66 | 1017.0 |
| 20260507210415 | 74 | 184 | 7.0 | 9.0 | 0.00 | 0.00 | 0.00 | 66 | 1017.1 |
| 20260507205911 | 75 | 203 | 7.0 | 7.0 | 0.00 | 0.00 | 0.00 | 67 | 1017.1 |
| 20260507205409 | 74 | 219 | 4.0 | 7.0 | 0.00 | 0.00 | 0.00 | 68 | 1017.2 |
| 20260507204904 | 74 | 170 | 3.0 | 7.0 | 0.00 | 0.00 | 0.00 | 66 | 1017.1 |
| 20260507204401 | 73 | 180 | 6.0 | 11.0 | 0.00 | 0.00 | 0.00 | 66 | 1017.1 |
| 20260507203859 | 74 | 123 | 5.0 | 9.0 | 0.00 | 0.00 | 0.00 | 68 | 1017.3 |
| 20260507203357 | 74 | 158 | 4.0 | 11.0 | 0.00 | 0.00 | 0.00 | 66 | 1017.4 |
| 20260507202853 | 74 | 180 | 4.0 | 12.0 | 0.00 | 0.00 | 0.00 | 68 | 1017.3 |
| 20260507202349 | 73 | 184 | 5.0 | 9.0 | 0.00 | 0.00 | 0.00 | 65 | 1017.4 |
| 20260507201845 | 73 | 204 | 3.0 | 9.0 | 0.00 | 0.00 | 0.00 | 69 | 1017.4 |
| 20260507201340 | 73 | 211 | 5.0 | 11.0 | 0.00 | 0.00 | 0.00 | 69 | 1017.4 |
| 20260507200837 | 73 | 157 | 2.0 | 9.0 | 0.00 | 0.00 | 0.00 | 67 | 1017.7 |
| 20260507200333 | 72 | 256 | 4.0 | 10.0 | 0.00 | 0.00 | 0.00 | 68 | 1017.4 |
| 20260507195829 | 73 | 199 | 3.0 | 8.0 | 0.00 | 0.00 | 0.00 | 66 | 1017.6 |
| 20260507195327 | 73 | 191 | 4.0 | 13.0 | 0.00 | 0.00 | 0.00 | 67 | 1017.7 |
| 20260507194824 | 72 | 216 | 7.0 | 10.0 | 0.00 | 0.00 | 0.00 | 68 | 1017.7 |
| 20260507194320 | 72 | 185 | 5.0 | 10.0 | 0.00 | 0.00 | 0.00 | 69 | 1018.0 |
| 20260507193817 | 71 | 253 | 3.0 | 11.0 | 0.00 | 0.00 | 0.00 | 69 | 1018.0 |
| 20260507193314 | 71 | 196 | 5.0 | 12.0 | 0.00 | 0.00 | 0.00 | 69 | 1017.9 |
| 20260507192809 | 71 | 213 | 4.0 | 9.0 | 0.00 | 0.00 | 0.00 | 71 | 1018.0 |
| 20260507192307 | 72 | 174 | 5.0 | 9.0 | 0.00 | 0.00 | 0.00 | 69 | 1018.0 |
| 20260507191803 | 71 | 211 | 7.0 | 9.0 | 0.00 | 0.00 | 0.00 | 69 | 1018.0 |
| 20260507191259 | 71 | 182 | 2.0 | 12.0 | 0.00 | 0.00 | 0.00 | 71 | 1018.0 |
| 20260507190756 | 71 | 193 | 4.0 | 10.0 | 0.00 | 0.00 | 0.00 | 67 | 1018.1 |
| 20260507190254 | 71 | 215 | 7.0 | 13.0 | 0.00 | 0.00 | 0.00 | 68 | 1018.0 |
| 20260507185753 | 71 | 186 | 3.0 | 9.0 | 0.00 | 0.00 | 0.00 | 68 | 1018.1 |
| 20260507185249 | 71 | 228 | 4.0 | 11.0 | 0.00 | 0.00 | 0.00 | 68 | 1018.1 |
| 20260507184747 | 71 | 168 | 3.0 | 9.0 | 0.00 | 0.00 | 0.00 | 67 | 1018.3 |
| 20260507184245 | 71 | 180 | 5.0 | 7.0 | 0.00 | 0.00 | 0.00 | 69 | 1018.2 |
| 20260507183741 | 70 | 233 | 5.0 | 10.0 | 0.00 | 0.00 | 0.00 | 68 | 1018.2 |
| 20260507183238 | 70 | 224 | 5.0 | 9.0 | 0.00 | 0.00 | 0.00 | 67 | 1018.4 |
| 20260507182736 | 72 | 201 | 4.0 | 7.0 | 0.00 | 0.00 | 0.00 | 67 | 1018.3 |
| 20260507182230 | 71 | 203 | 3.0 | 7.0 | 0.00 | 0.00 | 0.00 | 68 | 1018.3 |
| 20260507181728 | 72 | 184 | 5.0 | 8.0 | 0.00 | 0.00 | 0.00 | 64 | 1018.2 |
| 20260507181224 | 71 | 154 | 3.0 | 7.0 | 0.00 | 0.00 | 0.00 | 68 | 1018.1 |
| 20260507180720 | 70 | 183 | 3.0 | 9.0 | 0.00 | 0.00 | 0.00 | 68 | 1018.3 |
| 20260507180217 | 71 | 201 | 5.0 | 11.0 | 0.00 | 0.00 | 0.00 | 71 | 1018.5 |
| 20260507175713 | 70 | 238 | 7.0 | 7.0 | 0.00 | 0.00 | 0.00 | 69 | 1018.3 |
| 20260507175210 | 70 | 170 | 4.0 | 7.0 | 0.00 | 0.00 | 0.00 | 70 | 1018.5 |
| 20260507174708 | 71 | 197 | 4.0 | 7.0 | 0.00 | 0.00 | 0.00 | 70 | 1018.3 |
| 20260507174205 | 71 | 173 | 2.0 | 8.0 | 0.00 | 0.00 | 0.00 | 70 | 1018.5 |
| 20260507173702 | 70 | 196 | 1.0 | 7.0 | 0.00 | 0.00 | 0.00 | 68 | 1018.5 |
| 20260507173153 | 71 | 196 | 2.0 | 4.0 | 0.00 | 0.00 | 0.00 | 68 | 1018.4 |
| 20260507172650 | 70 | 140 | 2.0 | 4.0 | 0.00 | 0.00 | 0.00 | 72 | 1018.4 |